| time (UTC) | temp C | wind direction | speed KPH | gust KPH | rain 1hr cm | rain 24hr cm | rain mn cm | humidity % | barometer mb |
| 20260510193053 | 20 | 0 | 0.0 | 4.8 | 0.00 | 0.43 | 0.03 | 57 | 1011.7 |
| 20260510191552 | 19 | 0 | 0.0 | 4.8 | 0.00 | 0.43 | 0.03 | 65 | 1011.5 |
| 20260510190054 | 20 | 0 | 0.0 | 4.8 | 0.00 | 0.43 | 0.03 | 65 | 1011.7 |
| 20260510184551 | 20 | 0 | 0.0 | 4.8 | 0.00 | 0.51 | 0.03 | 65 | 1011.5 |
| 20260510183050 | 22 | 0 | 0.0 | 8.0 | 0.00 | 0.51 | 0.03 | 65 | 1011.4 |
| 20260510181553 | 21 | 286 | 0.0 | 9.7 | 0.00 | 0.51 | 0.03 | 65 | 1011.5 |
| 20260510180054 | 20 | 0 | 0.0 | 6.4 | 0.03 | 0.51 | 0.03 | 62 | 1011.6 |
| 20260510174555 | 20 | 286 | 0.0 | 6.4 | 0.03 | 0.64 | 0.03 | 55 | 1011.6 |
| 20260510173056 | 18 | 0 | 1.6 | 4.8 | 0.03 | 0.64 | 0.03 | 47 | 1011.7 |
| 20260510171558 | 18 | 0 | 1.6 | 6.4 | 0.03 | 0.64 | 0.03 | 44 | 1011.8 |
| 20260510170050 | 18 | 0 | 1.6 | 8.0 | 0.00 | 0.61 | 0.00 | 42 | 1011.9 |
| 20260510164555 | 18 | 0 | 0.0 | 12.9 | 0.00 | 0.76 | 0.00 | 44 | 1012.0 |
| 20260510163051 | 18 | 78 | 3.2 | 8.0 | 0.00 | 0.76 | 0.00 | 30 | 1012.0 |
| 20260510161554 | 18 | 78 | 0.0 | 6.4 | 0.00 | 0.76 | 0.00 | 13 | 1012.2 |
| 20260510160046 | 17 | 0 | 0.0 | 8.0 | 0.00 | 0.76 | 0.00 | 100 | 1012.2 |
| 20260510154555 | 16 | 78 | 0.0 | 6.4 | 0.00 | 0.86 | 0.00 | 100 | 1012.5 |
| 20260510153052 | 15 | 0 | 0.0 | 4.8 | 0.00 | 0.86 | 0.00 | 100 | 1012.8 |
| 20260510151552 | 14 | 78 | 0.0 | 4.8 | 0.00 | 0.86 | 0.00 | 100 | 1012.8 |
| 20260510150119 | 13 | 78 | 1.6 | 6.4 | 0.00 | 0.86 | 0.00 | 100 | 1012.6 |
| 20260510144613 | 13 | 78 | 0.0 | 4.8 | 0.00 | 0.94 | 0.00 | 100 | 1012.5 |
| 20260510143057 | 12 | 0 | 0.0 | 3.2 | 0.00 | 0.94 | 0.00 | 100 | 1012.8 |
| 20260510141553 | 12 | 0 | 1.6 | 8.0 | 0.00 | 0.94 | 0.00 | 100 | 1012.9 |
| 20260510140054 | 12 | 0 | 0.0 | 3.2 | 0.00 | 0.94 | 0.00 | 100 | 1012.8 |
| 20260510134607 | 11 | 0 | 0.0 | 6.4 | 0.00 | 0.99 | 0.00 | 100 | 1012.9 |
| 20260510133056 | 11 | 0 | 0.0 | 1.6 | 0.00 | 0.99 | 0.00 | 100 | 1012.7 |
| 20260510131601 | 11 | 0 | 0.0 | 4.8 | 0.00 | 0.99 | 0.00 | 100 | 1012.8 |
| 20260510130050 | 11 | 0 | 0.0 | 3.2 | 0.00 | 0.99 | 0.00 | 100 | 1012.8 |
| 20260510124550 | 11 | 0 | 0.0 | 3.2 | 0.00 | 1.02 | 0.00 | 100 | 1012.6 |
| 20260510123052 | 10 | 0 | 0.0 | 1.6 | 0.00 | 1.02 | 0.00 | 100 | 1012.5 |
| 20260510121547 | 10 | 0 | 0.0 | 0.0 | 0.00 | 1.02 | 0.00 | 100 | 1012.7 |
| 20260510120051 | 10 | 0 | 0.0 | 0.0 | 0.00 | 1.02 | 0.00 | 100 | 1012.7 |
| 20260510114608 | 10 | 0 | 0.0 | 1.6 | 0.00 | 1.09 | 0.00 | 100 | 1012.5 |
| 20260510113056 | 10 | 0 | 0.0 | 3.2 | 0.00 | 1.09 | 0.00 | 100 | 1012.7 |
| 20260510111552 | 10 | 0 | 0.0 | 1.6 | 0.00 | 1.09 | 0.00 | 100 | 1012.5 |
| 20260510110054 | 10 | 0 | 0.0 | 1.6 | 0.00 | 1.09 | 0.00 | 100 | 1012.2 |
| 20260510104557 | 10 | 0 | 0.0 | 3.2 | 0.00 | 1.17 | 0.00 | 100 | 1011.9 |
| 20260510103051 | 10 | 0 | 0.0 | 0.0 | 0.00 | 1.17 | 0.00 | 100 | 1012.0 |
| 20260510101552 | 10 | 0 | 0.0 | 0.0 | 0.00 | 1.17 | 0.00 | 100 | 1011.9 |
| 20260510094604 | 10 | 0 | 0.0 | 0.0 | 0.00 | 1.17 | 0.00 | 100 | 1011.3 |
| 20260510093053 | 10 | 0 | 0.0 | 0.0 | 0.00 | 1.17 | 0.00 | 100 | 1011.1 |
| 20260510091554 | 10 | 0 | 0.0 | 1.6 | 0.00 | 1.17 | 0.00 | 100 | 1010.9 |
| 20260510090049 | 10 | 0 | 0.0 | 0.0 | 0.00 | 1.17 | 0.00 | 100 | 1011.1 |
| 20260510084552 | 10 | 0 | 0.0 | 0.0 | 0.00 | 1.17 | 0.00 | 100 | 1011.5 |
| 20260510083049 | 10 | 0 | 0.0 | 0.0 | 0.00 | 1.17 | 0.00 | 100 | 1011.6 |
| 20260510081547 | 10 | 0 | 0.0 | 3.2 | 0.00 | 1.17 | 0.00 | 100 | 1011.5 |
| 20260510080054 | 10 | 0 | 0.0 | 1.6 | 0.00 | 1.17 | 0.00 | 100 | 1011.6 |
| 20260510074554 | 10 | 0 | 0.0 | 3.2 | 0.00 | 1.17 | 0.00 | 100 | 1011.5 |
| 20260510073049 | 10 | 0 | 0.0 | 3.2 | 0.00 | 1.17 | 0.00 | 100 | 1011.4 |
| 20260510071557 | 10 | 0 | 0.0 | 3.2 | 0.00 | 1.17 | 0.00 | 100 | 1011.1 |
| 20260510070109 | 10 | 0 | 0.0 | 1.6 | 0.00 | 1.17 | 0.00 | 100 | 1011.1 |
| 20260510064600 | 10 | 0 | 0.0 | 1.6 | 0.00 | 1.17 | 0.00 | 100 | 1011.0 |
| 20260510063100 | 10 | 0 | 0.0 | 1.6 | 0.00 | 1.17 | 0.00 | 100 | 1011.0 |
| 20260510061551 | 10 | 0 | 0.0 | 0.0 | 0.00 | 1.17 | 0.00 | 100 | 1011.1 |
| 20260510060054 | 9 | 0 | 0.0 | 3.2 | 0.00 | 1.17 | 0.00 | 100 | 1011.3 |
| 20260510054554 | 9 | 0 | 0.0 | 3.2 | 0.00 | 1.17 | 0.00 | 100 | 1011.3 |
| 20260510053048 | 9 | 0 | 0.0 | 0.0 | 0.00 | 1.17 | 0.00 | 100 | 1011.4 |
| 20260510051551 | 9 | 0 | 0.0 | 0.0 | 0.00 | 1.17 | 0.00 | 100 | 1011.0 |
| 20260510050058 | 9 | 0 | 0.0 | 0.0 | 0.00 | 1.17 | 0.00 | 100 | 1011.2 |
| 20260510044557 | 9 | 0 | 0.0 | 0.0 | 0.00 | 1.17 | 0.00 | 100 | 1011.3 |
| 20260510043050 | 9 | 0 | 0.0 | 0.0 | 0.00 | 1.17 | 0.00 | 100 | 1011.3 |
| 20260510041557 | 9 | 0 | 0.0 | 0.0 | 0.00 | 1.17 | 0.00 | 100 | 1011.4 |
| 20260510040049 | 9 | 0 | 0.0 | 0.0 | 0.00 | 1.17 | 0.00 | 100 | 1011.5 |
| 20260510034549 | 8 | 0 | 0.0 | 3.2 | 0.00 | 1.17 | 1.17 | 100 | 1011.6 |
| 20260510033107 | 8 | 0 | 0.0 | 0.0 | 0.00 | 1.17 | 1.17 | 100 | 1011.4 |
| 20260510031604 | 8 | 0 | 0.0 | 1.6 | 0.00 | 1.17 | 1.17 | 100 | 1011.4 |
| 20260510030049 | 8 | 0 | 0.0 | 0.0 | 0.00 | 1.17 | 1.17 | 100 | 1011.6 |
| 20260510024547 | 8 | 0 | 0.0 | 0.0 | 0.00 | 1.17 | 1.17 | 100 | 1011.4 |
| 20260510023052 | 8 | 0 | 0.0 | 3.2 | 0.00 | 1.17 | 1.17 | 100 | 1011.3 |
| 20260510021552 | 8 | 0 | 0.0 | 0.0 | 0.00 | 1.17 | 1.17 | 100 | 1011.6 |
| 20260510020051 | 8 | 0 | 0.0 | 0.0 | 0.00 | 1.17 | 1.17 | 100 | 1011.9 |
| 20260510014602 | 8 | 0 | 0.0 | 0.0 | 0.00 | 1.17 | 1.17 | 100 | 1012.1 |
| 20260510013048 | 8 | 0 | 0.0 | 0.0 | 0.00 | 1.17 | 1.17 | 100 | 1012.0 |
| 20260510011549 | 9 | 0 | 0.0 | 0.0 | 0.00 | 1.17 | 1.17 | 100 | 1011.9 |
| 20260510010100 | 9 | 0 | 0.0 | 0.0 | 0.00 | 1.17 | 1.17 | 100 | 1011.6 |
| 20260510004556 | 9 | 0 | 0.0 | 1.6 | 0.00 | 1.17 | 1.17 | 100 | 1011.4 |
| 20260510003058 | 8 | 0 | 0.0 | 1.6 | 0.00 | 1.17 | 1.17 | 100 | 1011.2 |
| 20260510001550 | 8 | 0 | 0.0 | 1.6 | 0.00 | 1.17 | 1.17 | 100 | 1011.1 |
| 20260510000053 | 8 | 0 | 0.0 | 0.0 | 0.00 | 1.17 | 1.17 | 100 | 1011.4 |
| 20260509234605 | 8 | 78 | 0.0 | 0.0 | 0.00 | 1.17 | 1.17 | 100 | 1011.5 |
| 20260509233049 | 8 | 0 | 0.0 | 1.6 | 0.00 | 1.17 | 1.17 | 100 | 1011.4 |
| 20260509231552 | 8 | 0 | 0.0 | 0.0 | 0.00 | 1.17 | 1.17 | 100 | 1011.5 |
| 20260509230047 | 8 | 0 | 0.0 | 0.0 | 0.00 | 1.17 | 1.17 | 100 | 1011.3 |
| 20260509224547 | 8 | 0 | 0.0 | 3.2 | 0.00 | 1.17 | 1.17 | 100 | 1011.2 |
| 20260509223057 | 8 | 0 | 0.0 | 3.2 | 0.00 | 1.17 | 1.17 | 100 | 1011.1 |
| 20260509221554 | 8 | 0 | 0.0 | 0.0 | 0.05 | 1.17 | 1.17 | 100 | 1011.0 |
| 20260509220059 | 8 | 0 | 0.0 | 1.6 | 0.10 | 1.17 | 1.17 | 100 | 1011.2 |
| 20260509214552 | 8 | 0 | 0.0 | 0.0 | 0.15 | 1.17 | 1.17 | 100 | 1011.3 |
| 20260509213050 | 8 | 0 | 0.0 | 4.8 | 0.20 | 1.17 | 1.17 | 100 | 1011.4 |
| 20260509211550 | 7 | 0 | 0.0 | 4.8 | 0.18 | 1.12 | 1.12 | 100 | 1011.7 |
| 20260509210047 | 8 | 0 | 0.0 | 0.0 | 0.15 | 1.07 | 1.07 | 100 | 1012.0 |
| 20260509204558 | 7 | 0 | 0.0 | 0.0 | 0.10 | 0.99 | 0.99 | 100 | 1012.1 |
| 20260509203049 | 7 | 0 | 0.0 | 0.0 | 0.10 | 0.97 | 0.97 | 100 | 1012.3 |
| 20260509201551 | 7 | 0 | 0.0 | 0.0 | 0.13 | 0.94 | 0.94 | 100 | 1012.3 |
| 20260509200049 | 7 | 0 | 0.0 | 1.6 | 0.15 | 0.91 | 0.91 | 100 | 1012.4 |
| 20260509194556 | 7 | 0 | 0.0 | 0.0 | 0.13 | 0.89 | 0.89 | 100 | 1012.3 |